www.pogodaiklimat.ru

Погода и климат >> Архив погоды >> Россия >> Ставропольский край >> Кисловодск


АРХИВ ПОГОДЫ в Кисловодске

Время (UTC), дата Ветер
(напр.,м/с)
 
Видим.   Явления Облачность Т
(С)
Тd
(С)
f
(%)
Тe
(С)
Тes
(С)
Комфортность P
(гПа)
Po
(гПа)
Тmin
(С)
Tmax
(С)
R
(мм)
R24
(мм)
S
(см)
12 8.09 ЮВ 4-11
{14}
10 км 6/3
[Cb cap Ac As]
+16.7 +6.8 52 +16 +19 очень
холодно
1019.0 913.2
15 8.09 ЮВ 3
{11}
10 км 6/6
[Sc]
+14.6 +7.3 62 +14 +14 холодно 1020.9 914.2 +16.9
18 8.09 Ю 3 10 км 10/0
[Ac trans Ci fib]
+11.9 +7.5 74 +10 +10 холодно 1022.4 914.6
21 8.09 Ю 4 10 км 10/3
[Sc Ci fib]
+11.5 +5.3 66 +9 +9 холодно 1021.7 913.8
00 9.09 Ю 2 10 км ясно +10.8 +5.4 69 +10 +10 прохладно 1021.1 913.0
03 9.09 Ю 2 10 км ясно +10.8 +4.5 65 +10 +10 холодно 1021.7 913.5 +10.5
06 9.09 ЮВ 5-12
{13}
10 км 8/8 600 м
[Sc]
+14.2 +6.9 61 +13 +13 прохладно 1019.9 913.2
09 9.09 ЮВ 4-11
{15}
10 км 9/9 600 м
[Cb cap]
+14.0 +7.8 66 +13 +14 очень
холодно
1019.6 912.8
12 9.09 ЮВ 3
{13}
10 км 10/10 600 м
[Cb cap]
+15.1 +8.5 65 +14 +14 очень
холодно
1018.6 912.3
15 9.09 ЮВ 2
{10}
10 км 10/10 600 м
[Cb cap]
+14.5 +8.6 68 +14 +14 холодно 1019.0 912.5 +17.1
18 9.09 Ю 2 10 км 10/10 600 м
[Cb cap]
+13.3 +9.4 77 +13 +13 прохладно 1020.0 913.0
21 9.09 Ю 3 10 км 10/10 600 м
[Sc]
+12.5 +9.3 81 +11 +11 прохладно 1019.9 912.6
00 10.09 ЮВ 3 10 км {ливн. осадки} 10/10 600 м
[Cb cap]
+11.6 +9.6 88 +10 +10 прохладно 1019.1 911.6
03 10.09 Ю 3 10 км 8/8 600 м
[Sc]
+11.0 +7.7 80 +9 +9 холодно 1020.1 912.2 +11.0 0.0
06 10.09 Ю 3 10 км 9/9 600 м
[Sc]
+13.0 +8.4 74 +12 +12 холодно 1019.6 912.5 +10.9
09 10.09 ЮВ 2
{10}
10 км 8/4 600 м
[Sc Ac cast]
+17.3 +7.4 52 +18 +22 по сезону 1018.8 913.2
12 10.09 Ю 3
{10}
10 км 6/6 600 м
[Cb cap]
+17.0 +8.1 56 +17 +19 холодно 1018.8 913.1
15 10.09 Ю 2
{11}
10 км 8/8 600 м
[Cb cap]
+15.2 +8.2 63 +15 +15 холодно 1019.6 913.2 +17.4
18 10.09 Ю 2 10 км 4/4 1000 м
[Sc]
+13.4 +8.4 72 +13 +13 прохладно 1020.9 913.8
21 10.09 ЮВ 2 10 км 9/9 1000 м
[Sc]
+13.4 +8.6 73 +13 +13 по сезону 1020.8 913.7
00 11.09 ЮВ 1 10 км 10/10 600 м
[Sc]
+13.4 +9.9 79 +14 +14 тепло 1020.6 913.6
03 11.09 Ю 2 10 км 8/8 600 м
[Sc]
+13.2 +10.1 81 +12 +12 прохладно 1021.2 914.0 +12.4
06 11.09 штиль 0 4000 м слаб. дождь 10/0 300 м
[As op]
+13.1 +11.9 92 +13 +14 прохладно 1022.4 915.2
09 11.09 В 2 10 км {дождь} 10/10 600 м
[Cb cap]
+15.0 +10.7 75 +15 +15 холодно 1022.2 915.6
12 11.09 ЮВ 3-12
{12}
10 км {дождь} 9/9 600 м
[Cb cap]
+18.1 +9.4 57 +18 +19 холодно 1021.7 916.2
15 11.09 Ю 2
{12}
10 км 8/4 600 м
[Sc Ac trans]
+15.5 +8.0 61 +15 +15 холодно 1023.4 916.7 +18.1 0.3
18 11.09 Ю 4 10 км ясно +13.2 +8.3 72 +12 +12 прохладно 1024.7 917.1
21 11.09 Ю 3 10 км ясно +11.5 +8.1 80 +10 +10 прохладно 1024.4 916.3
00 12.09 Ю 3 10 км ясно +10.3 +7.3 82 +8 +8 прохладно 1024.0 915.5
03 12.09 Ю 3 10 км ясно +10.0 +6.1 77 +8 +8 холодно 1025.2 916.4 +9.4
06 12.09 Ю 3 10 км ясно +15.6 +4.8 49 +15 +20 по сезону 1023.2 916.5
09 12.09 В 4
{10}
10 км 6/6 1000 м
[Cu med, cong]
+18.4 +6.2 45 +18 +22 по сезону 1021.1 915.6
12 12.09 В 3-10
{12}
10 км 4/4 1000 м
[Sc]
+18.3 +5.9 44 +19 +22 холодно 1021.1 915.6
15 12.09 ЮВ 2
{11}
10 км 3/3 1000 м
[Sc diur, vesp]
+16.4 +6.3 51 +17 +17 прохладно 1021.8 915.6 +19.0
18 12.09 Ю 3 10 км ясно +12.4 +6.3 66 +11 +11 холодно 1023.9 916.1
21 12.09 Ю 3 10 км ясно +10.7 +6.9 77 +9 +9 холодно 1023.7 915.3
00 13.09 Ю 3 10 км ясно +9.2 +6.1 81 +7 +7 прохладно 1023.0 914.1
03 13.09 Ю 3 10 км ясно +10.4 +6.3 76 +8 +8 холодно 1023.1 914.7 +8.9
06 13.09 ЮВ 3 10 км ясно +15.7 +6.5 54 +15 +20 по сезону 1021.4 914.9
09 13.09 ЮВ 3
{13}
10 км 1/1 1000 м
[Cu med, cong]
+19.2 +4.2 37 +20 +29 по сезону 1019.4 914.4
12 13.09 ЮВ 3
{11}
10 км ясно +19.7 +3.7 35 +20 +26 прохладно 1018.5 913.7
15 13.09 ЮВ 2 10 км ясно +16.6 +5.7 48 +17 +17 прохладно 1019.8 913.9 +19.8
18 13.09 Ю 3 10 км ясно +13.2 +4.5 56 +12 +12 прохладно 1021.6 914.3
21 13.09 Ю 4 10 км ясно +12.0 +5.3 64 +10 +10 прохладно 1021.2 913.5
00 14.09 ЮЗ 1 10 км ясно +8.0 +5.1 82 +7 +7 прохладно 1022.3 913.0
03 14.09 З 1 10 км ясно +8.0 +4.8 80 +7 +7 холодно 1022.3 913.0 +7.1
06 14.09 ЮВ 2 10 км ясно +17.1 +5.6 47 +17 +23 по сезону 1018.6 912.9
09 14.09 Ю 3 10 км ясно +22.1 +5.4 34 +23 +33 комфорт 1015.5 911.8
12 14.09 В 2 10 км 3/3 1000 м
[Cu hum]
+21.8 +7.0 38 +23 +27 комфорт 1015.0 911.4
15 14.09 ЮВ 2 10 км 1/1 600 м
[Sc diur, vesp]
+18.3 +7.0 48 +19 +19 по сезону 1016.5 911.5 +22.7
18 14.09 Ю 2 10 км ясно +13.2 +7.7 69 +13 +13 прохладно 1018.9 911.9
21 14.09 Ю 2 10 км ясно +10.2 +6.1 76 +9 +9 прохладно 1020.1 911.9
00 15.09 Ю 3 10 км ясно +8.7 +4.7 76 +6 +6 холодно 1021.0 912.1
03 15.09 Ю 2 10 км ясно +7.8 +4.4 79 +6 +6 очень
холодно
1021.4 912.2 +7.4
06 15.09 С 1 10 км 1/1 1000 м
[Cu hum]
+18.0 +6.0 45 +19 +25 тепло 1018.0 912.7

 

Местоположение метеостанции Кисловодск (Ставропольский край, Россия): широта 43.90 долгота 42.72 высота над уровнем моря 943 м.

В архиве по умолчанию представлена погода в Кисловодске за последнюю неделю. Архивные данные за месяц целиком и за предыдущие месяцы, начиная с января 2011 года, Вы можете получить, выбрав интересующий диапазон дат из раскрывающегося списка и нажав кнопку "Ввод!".


*Определитесь, кто Вы:
робот инопланетянин человек

Внимание! Время в таблицах - всемирное. Для получения местного времени необходимо прибавить поправку, которая равна 3 ч.

Смотрите также архив погоды в соседних городах и на ближайших метеорологических станциях:

Погода в Шаджатмазе (Карачаево-Черкессия, Россия) (19 км)
Погода в Минеральных Водах (Ставропольский край, Россия) (47 км)
Погода в Тырныаузе (Кабардино-Балкария, Россия) (60 км)
Погода в Черкесске (Карачаево-Черкессия, Россия) (63 км)
Погода в Георгиевске (Ставропольский край, Россия) (64 км)
Погода в Архызе (Карачаево-Черкессия, Россия) (71 км)
Погода на Леднике Гарабаши (Карачаево-Черкессия, Россия) (73 км)
Погода в Терсколе (Кабардино-Балкария, Россия) (74 км)
Погода в Чегете (Кабардино-Балкария, Россия) (76 км)
Погода в Нальчике (Кабардино-Балкария, Россия) (84 км)

Пояснения к столбцам:

Ветер - указаны скорость ветра в м/с - средняя за 10 мин, порывы в срок и между сроками (в фигурных скобках) и направление, откуда дует ветер: С - северный, СВ - северо-восточный, В - восточный, ЮВ - юго-восточный, Ю - южный, ЮЗ - юго-западный, З - западный, СЗ - северо-западный.
Видимость - горизонтальная дальность видимости в метрах или километрах. При видимости от 1 до 10 км при отсутствии осадков обычно наблюдается дымка, при ухудшении видимости до 1 км и менее - туман. В сухую погоду видимость может ухудшаться дымом, пылью или мглою.
Явления - указаны атмосферные явления, наблюдавшиеся в срок или в последний час перед сроком; фигурными скобками обозначены явления, наблюдавшиеся между сроками (за 1-3 часа до срока); квадратными скобками обозначены град или гололедные отложения с указанием их диаметра в мм.
Облачность - указаны через наклонную черту общая и нижняя облачность в баллах и высота нижней границы облаков в метрах; квадратными скобками обозначены формы облаков: Ci - перистые, Cs - перисто-слоистые, Cc - перисто-кучевые, Ac - высококучевые, As - высокослоистые, Sc - слоисто-кучевые, Ns - слоисто-дождевые, Cu - кучевые, Cb - кучево-дождевые. Подробнее классификацию облаков см. в Атласе облаков (PDF).
T - Температура воздуха - температура, измеренная на высоте 2 м над землей.
Td - Температура точки росы - температура, при понижении до которой содержащийся в воздухе водяной пар достигнет насыщения.
f - Относительная влажность воздуха - влажноcть воздуха, измеренная на высоте 2 м над землей.
Te - Эффективная температура - температура, которую ощущает одетый по сезону человек в тени. Характеристика душности погоды. При расчете учитывается влияние влажности воздуха и скорости ветра на теплоощущения человека.
Tes - Эффективная температура на солнце - температура, которую ощущает человек, с поправкой на солнечный нагрев. Характеристика знойности погоды. Зависит от высоты солнца над горизонтом, облачности и скорости ветра. Ночью, в пасмурную погоду, а также при ветре 12 м/с и более поправка равна нулю.
P - Атмосферное давление - приведенное к уровню моря атмосферное давление.
Po - Атмосферное давление - измеренное на уровне метеостанции атмосферное давление.
Tmin - Минимальная температура - минимум температуры воздуха на высоте 2 м над землей.
Tmax - Максимальная температура - максимум температуры воздуха на высоте 2 м над землей.
R - Количество осадков - Количество выпавших осадков за период времени, мм. При наведении курсора мыши на число - период времени, за который выпало указанное количество осадков.
R24 - Количество осадков - Количество выпавших осадков за 24 часа, мм.
S - Снежный покров - Высота снежного покрова, см. При наведении курсора мыши на число - состояние снежного покрова и степень покрытия местности в баллах.